Time,TemperatureF,DewpointF,PressureIn,WindDirection,WindDirectionDegrees,WindSpeedMPH,WindSpeedGustMPH,Humidity,HourlyPrecipIn,Conditions,Clouds,dailyrainin,SolarRadiationWatts/m^2,SoftwareType,DateUTC
2013-03-04 00:01:00,27.0,24.0,-100.00,West,273,0.0,0.0,90,0.00,,,0.00,0.000000,,2013-03-04 08:01:00,
2013-03-04 00:11:00,27.0,24.0,-100.00,West,273,0.0,0.0,90,0.00,,,0.00,0.000000,,2013-03-04 08:11:00,
2013-03-04 00:42:00,27.0,24.0,-100.00,West,280,0.0,16.0,89,0.00,,,0.00,0.000000,,2013-03-04 08:42:00,
2013-03-04 00:52:00,27.0,24.0,-100.00,West,280,0.0,16.0,89,0.00,,,0.00,0.000000,,2013-03-04 08:52:00,
2013-03-04 01:01:00,27.0,24.0,-100.00,West,280,0.0,16.0,89,0.00,,,0.00,0.000000,,2013-03-04 09:01:00,
2013-03-04 01:11:00,27.0,24.0,-100.00,West,280,0.0,16.0,89,0.00,,,0.00,0.000000,,2013-03-04 09:11:00,
2013-03-04 01:32:00,26.0,22.0,-100.00,WNW,299,15.0,28.0,85,0.00,,,0.00,0.000000,,2013-03-04 09:32:00,
2013-03-04 01:42:00,26.0,22.0,-100.00,WNW,299,15.0,28.0,85,0.00,,,0.00,0.000000,,2013-03-04 09:42:00,
2013-03-04 01:52:00,26.0,22.0,-100.00,WNW,299,15.0,28.0,85,0.00,,,0.00,0.000000,,2013-03-04 09:52:00,
2013-03-04 02:01:00,26.0,22.0,-100.00,WNW,299,15.0,28.0,85,0.00,,,0.00,0.000000,,2013-03-04 10:01:00,
2013-03-04 02:11:00,26.0,22.0,-100.00,WNW,299,15.0,28.0,85,0.00,,,0.00,0.000000,,2013-03-04 10:11:00,
2013-03-04 02:32:00,24.0,20.0,-100.00,WNW,298,17.0,28.0,85,0.00,,,0.00,0.000000,,2013-03-04 10:32:00,
2013-03-04 02:42:00,24.0,20.0,-100.00,WNW,298,17.0,28.0,85,0.00,,,0.00,0.000000,,2013-03-04 10:42:00,
2013-03-04 02:52:00,24.0,20.0,-100.00,WNW,298,17.0,28.0,85,0.00,,,0.00,0.000000,,2013-03-04 10:52:00,
2013-03-04 03:01:00,24.0,20.0,-100.00,WNW,298,17.0,28.0,85,0.00,,,0.00,0.000000,,2013-03-04 11:01:00,
2013-03-04 03:11:00,24.0,20.0,-100.00,WNW,298,17.0,28.0,85,0.00,,,0.00,0.000000,,2013-03-04 11:11:00,
2013-03-04 03:32:00,24.0,19.0,-100.00,WNW,301,22.0,29.0,81,0.00,,,0.00,0.000000,,2013-03-04 11:32:00,
2013-03-04 03:42:00,24.0,19.0,-100.00,WNW,301,22.0,29.0,81,0.00,,,0.00,0.000000,,2013-03-04 11:42:00,
2013-03-04 03:52:00,24.0,19.0,-100.00,WNW,301,22.0,29.0,81,0.00,,,0.00,0.000000,,2013-03-04 11:52:00,
2013-03-04 04:01:00,24.0,19.0,-100.00,WNW,301,22.0,29.0,81,0.00,,,0.00,0.000000,,2013-03-04 12:01:00,
2013-03-04 04:11:00,24.0,19.0,-100.00,WNW,301,22.0,29.0,81,0.00,,,0.00,0.000000,,2013-03-04 12:11:00,
2013-03-04 04:32:00,22.0,18.0,-100.00,WNW,298,15.0,29.0,83,0.00,,,0.00,0.000000,,2013-03-04 12:32:00,
2013-03-04 04:42:00,22.0,18.0,-100.00,WNW,298,15.0,29.0,83,0.00,,,0.00,0.000000,,2013-03-04 12:42:00,
2013-03-04 04:53:00,22.0,18.0,-100.00,WNW,298,15.0,29.0,83,0.00,,,0.00,0.000000,,2013-03-04 12:53:00,
2013-03-04 05:02:00,22.0,18.0,-100.00,WNW,298,15.0,29.0,83,0.00,,,0.00,0.000000,,2013-03-04 13:02:00,
2013-03-04 05:11:00,22.0,18.0,-100.00,WNW,298,15.0,29.0,83,0.00,,,0.00,0.000000,,2013-03-04 13:11:00,
2013-03-04 05:42:00,22.0,19.0,-100.00,WNW,299,18.0,30.0,87,0.00,,,0.00,0.000000,,2013-03-04 13:42:00,
2013-03-04 05:52:00,22.0,19.0,-100.00,WNW,299,18.0,30.0,87,0.00,,,0.00,0.000000,,2013-03-04 13:52:00,
2013-03-04 06:01:00,22.0,19.0,-100.00,WNW,299,18.0,30.0,87,0.00,,,0.00,0.000000,,2013-03-04 14:01:00,
2013-03-04 06:11:00,22.0,19.0,-100.00,WNW,299,18.0,30.0,87,0.00,,,0.00,0.000000,,2013-03-04 14:11:00,
2013-03-04 06:32:00,21.0,17.0,-100.00,WNW,293,20.0,34.0,84,0.00,,,0.00,1.000000,,2013-03-04 14:32:00,
2013-03-04 06:42:00,21.0,17.0,-100.00,WNW,293,20.0,34.0,84,0.00,,,0.00,1.000000,,2013-03-04 14:42:00,
2013-03-04 06:52:00,21.0,17.0,-100.00,WNW,293,20.0,34.0,84,0.00,,,0.00,1.000000,,2013-03-04 14:52:00,
2013-03-04 07:01:00,21.0,17.0,-100.00,WNW,293,20.0,34.0,84,0.00,,,0.00,1.000000,,2013-03-04 15:01:00,
2013-03-04 07:11:00,21.0,17.0,-100.00,WNW,293,20.0,34.0,84,0.00,,,0.00,1.000000,,2013-03-04 15:11:00,
2013-03-04 07:42:00,23.0,16.0,-100.00,WNW,297,14.0,30.0,74,0.00,,,0.00,128.000000,,2013-03-04 15:42:00,
2013-03-04 07:52:00,23.0,16.0,-100.00,WNW,297,14.0,30.0,74,0.00,,,0.00,128.000000,,2013-03-04 15:52:00,
2013-03-04 08:02:00,23.0,16.0,-100.00,WNW,297,14.0,30.0,74,0.00,,,0.00,128.000000,,2013-03-04 16:02:00,
2013-03-04 08:11:00,23.0,16.0,-100.00,WNW,297,14.0,30.0,74,0.00,,,0.00,128.000000,,2013-03-04 16:11:00,
2013-03-04 08:42:00,26.0,17.0,-100.00,West,279,7.0,23.0,68,0.00,,,0.00,269.000000,,2013-03-04 16:42:00,
2013-03-04 08:52:00,26.0,17.0,-100.00,West,279,7.0,23.0,68,0.00,,,0.00,269.000000,,2013-03-04 16:52:00,
2013-03-04 09:02:00,26.0,17.0,-100.00,West,279,7.0,23.0,68,0.00,,,0.00,269.000000,,2013-03-04 17:02:00,
2013-03-04 09:11:00,26.0,17.0,-100.00,West,279,7.0,23.0,68,0.00,,,0.00,269.000000,,2013-03-04 17:11:00,
2013-03-04 09:42:00,27.0,18.0,-100.00,WNW,300,7.0,11.0,68,0.00,,,0.00,67.000000,,2013-03-04 17:42:00,
2013-03-04 09:52:00,27.0,18.0,-100.00,WNW,300,7.0,11.0,68,0.00,,,0.00,67.000000,,2013-03-04 17:52:00,
2013-03-04 10:01:00,27.0,18.0,-100.00,WNW,300,7.0,11.0,68,0.00,,,0.00,67.000000,,2013-03-04 18:01:00,
2013-03-04 10:11:00,27.0,18.0,-100.00,WNW,300,7.0,11.0,68,0.00,,,0.00,67.000000,,2013-03-04 18:11:00,
2013-03-04 10:32:00,37.0,21.0,-100.00,SSE,151,2.0,11.0,52,0.00,,,0.00,330.000000,,2013-03-04 18:32:00,
2013-03-04 10:42:00,37.0,21.0,-100.00,SSE,151,2.0,11.0,52,0.00,,,0.00,330.000000,,2013-03-04 18:42:00,
2013-03-04 10:52:00,37.0,21.0,-100.00,SSE,151,2.0,11.0,52,0.00,,,0.00,330.000000,,2013-03-04 18:52:00,
2013-03-04 11:01:00,37.0,21.0,-100.00,SSE,151,2.0,11.0,52,0.00,,,0.00,330.000000,,2013-03-04 19:01:00,
2013-03-04 11:11:00,37.0,21.0,-100.00,SSE,151,2.0,11.0,52,0.00,,,0.00,330.000000,,2013-03-04 19:11:00,
2013-03-04 11:32:00,33.0,18.0,-100.00,North,350,4.0,13.0,54,0.00,,,0.00,781.000000,,2013-03-04 19:32:00,
2013-03-04 11:42:00,33.0,18.0,-100.00,North,350,4.0,13.0,54,0.00,,,0.00,781.000000,,2013-03-04 19:42:00,
2013-03-04 11:52:00,33.0,18.0,-100.00,North,350,4.0,13.0,54,0.00,,,0.00,781.000000,,2013-03-04 19:52:00,
2013-03-04 12:01:00,33.0,18.0,-100.00,North,350,4.0,13.0,54,0.00,,,0.00,781.000000,,2013-03-04 20:01:00,
2013-03-04 12:11:00,33.0,18.0,-100.00,North,350,4.0,13.0,54,0.00,,,0.00,781.000000,,2013-03-04 20:11:00,
2013-03-04 12:32:00,31.0,17.0,-100.00,WNW,288,6.0,12.0,55,0.00,,,0.00,773.000000,,2013-03-04 20:32:00,
2013-03-04 12:42:00,31.0,17.0,-100.00,WNW,288,6.0,12.0,55,0.00,,,0.00,773.000000,,2013-03-04 20:42:00,
2013-03-04 12:52:00,31.0,17.0,-100.00,WNW,288,6.0,12.0,55,0.00,,,0.00,773.000000,,2013-03-04 20:52:00,
2013-03-04 13:01:00,31.0,17.0,-100.00,WNW,288,6.0,12.0,55,0.00,,,0.00,773.000000,,2013-03-04 21:01:00,
2013-03-04 13:11:00,31.0,17.0,-100.00,WNW,288,6.0,12.0,55,0.00,,,0.00,773.000000,,2013-03-04 21:11:00,
2013-03-04 13:32:00,32.0,17.0,-100.00,West,270,6.0,14.0,54,0.00,,,0.00,706.000000,,2013-03-04 21:32:00,
2013-03-04 13:43:00,32.0,17.0,-100.00,West,270,6.0,14.0,54,0.00,,,0.00,706.000000,,2013-03-04 21:43:00,
2013-03-04 13:52:00,32.0,17.0,-100.00,West,270,6.0,14.0,54,0.00,,,0.00,706.000000,,2013-03-04 21:52:00,
2013-03-04 14:01:00,32.0,17.0,-100.00,West,270,6.0,14.0,54,0.00,,,0.00,706.000000,,2013-03-04 22:01:00,
2013-03-04 14:11:00,32.0,17.0,-100.00,West,270,6.0,14.0,54,0.00,,,0.00,706.000000,,2013-03-04 22:11:00,
2013-03-04 14:32:00,33.0,18.0,-100.00,West,280,6.0,11.0,53,0.00,,,0.00,597.000000,,2013-03-04 22:32:00,
2013-03-04 14:43:00,33.0,18.0,-100.00,West,280,6.0,11.0,53,0.00,,,0.00,597.000000,,2013-03-04 22:43:00,
2013-03-04 14:52:00,33.0,18.0,-100.00,West,280,6.0,11.0,53,0.00,,,0.00,597.000000,,2013-03-04 22:52:00,
2013-03-04 15:01:00,33.0,18.0,-100.00,West,280,6.0,11.0,53,0.00,,,0.00,597.000000,,2013-03-04 23:01:00,
2013-03-04 15:11:00,33.0,18.0,-100.00,West,280,6.0,11.0,53,0.00,,,0.00,597.000000,,2013-03-04 23:11:00,
2013-03-04 15:32:00,34.0,20.0,-100.00,SE,134,1.0,8.0,56,0.00,,,0.00,435.000000,,2013-03-04 23:32:00,
2013-03-04 15:42:00,34.0,20.0,-100.00,SE,134,1.0,8.0,56,0.00,,,0.00,435.000000,,2013-03-04 23:42:00,
2013-03-04 15:52:00,34.0,20.0,-100.00,SE,134,1.0,8.0,56,0.00,,,0.00,435.000000,,2013-03-04 23:52:00,
2013-03-04 16:01:00,34.0,20.0,-100.00,SE,134,1.0,8.0,56,0.00,,,0.00,435.000000,,2013-03-05 00:01:00,
2013-03-04 16:11:00,34.0,20.0,-100.00,SE,134,1.0,8.0,56,0.00,,,0.00,435.000000,,2013-03-05 00:11:00,
2013-03-04 16:42:00,30.0,19.0,-100.00,South,180,2.0,4.0,62,0.00,,,0.00,247.000000,,2013-03-05 00:42:00,
2013-03-04 16:52:00,30.0,19.0,-100.00,South,180,2.0,4.0,62,0.00,,,0.00,247.000000,,2013-03-05 00:52:00,
2013-03-04 17:01:00,30.0,19.0,-100.00,South,180,2.0,4.0,62,0.00,,,0.00,247.000000,,2013-03-05 01:01:00,
2013-03-04 17:11:00,30.0,19.0,-100.00,South,180,2.0,4.0,62,0.00,,,0.00,247.000000,,2013-03-05 01:11:00,
2013-03-04 18:42:00,24.0,14.0,-100.00,WSW,238,5.0,9.0,64,-99.99,,,0.00,5.000000,,2013-03-05 02:42:00,
2013-03-04 18:52:00,24.0,14.0,-100.00,WSW,238,5.0,9.0,64,-99.99,,,0.00,5.000000,,2013-03-05 02:52:00,
2013-03-04 19:01:00,24.0,14.0,-100.00,WSW,238,5.0,9.0,64,-99.99,,,0.00,5.000000,,2013-03-05 03:01:00,
2013-03-04 19:11:00,24.0,14.0,-100.00,WSW,238,5.0,9.0,64,-99.99,,,0.00,5.000000,,2013-03-05 03:11:00,
2013-03-04 19:32:00,25.0,12.0,-100.00,SW,229,7.0,10.0,57,0.00,,,0.00,0.000000,,2013-03-05 03:32:00,
2013-03-04 19:42:00,25.0,12.0,-100.00,SW,229,7.0,10.0,57,0.00,,,0.00,0.000000,,2013-03-05 03:42:00,
2013-03-04 19:52:00,25.0,12.0,-100.00,SW,229,7.0,10.0,57,0.00,,,0.00,0.000000,,2013-03-05 03:52:00,
2013-03-04 20:01:00,25.0,12.0,-100.00,SW,229,7.0,10.0,57,0.00,,,0.00,0.000000,,2013-03-05 04:01:00,
2013-03-04 20:11:00,25.0,12.0,-100.00,SW,229,7.0,10.0,57,0.00,,,0.00,0.000000,,2013-03-05 04:11:00,
2013-03-04 20:32:00,23.0,8.0,-100.00,SW,222,7.0,9.0,52,0.00,,,0.00,0.000000,,2013-03-05 04:32:00,
2013-03-04 20:42:00,23.0,8.0,-100.00,SW,222,7.0,9.0,52,0.00,,,0.00,0.000000,,2013-03-05 04:42:00,
2013-03-04 20:52:00,23.0,8.0,-100.00,SW,222,7.0,9.0,52,0.00,,,0.00,0.000000,,2013-03-05 04:52:00,
2013-03-04 21:01:00,23.0,8.0,-100.00,SW,222,7.0,9.0,52,0.00,,,0.00,0.000000,,2013-03-05 05:01:00,
2013-03-04 21:11:00,23.0,8.0,-100.00,SW,222,7.0,9.0,52,0.00,,,0.00,0.000000,,2013-03-05 05:11:00,
2013-03-04 21:32:00,27.0,2.0,-100.00,SW,235,9.0,14.0,33,0.00,,,0.00,0.000000,,2013-03-05 05:32:00,
2013-03-04 22:32:00,28.0,5.0,-100.00,SW,220,3.0,13.0,37,-99.99,,,0.00,0.000000,,2013-03-05 06:32:00,
2013-03-04 23:11:00,28.0,5.0,-100.00,SW,220,3.0,13.0,37,-99.99,,,0.00,0.000000,,2013-03-05 07:11:00,
2013-03-04 23:32:00,26.0,6.0,-100.00,SW,222,5.0,11.0,41,0.00,,,0.00,0.000000,,2013-03-05 07:32:00,
2013-03-04 23:42:00,26.0,6.0,-100.00,SW,222,5.0,11.0,41,0.00,,,0.00,0.000000,,2013-03-05 07:42:00,
2013-03-04 23:52:00,26.0,6.0,-100.00,SW,222,5.0,11.0,41,0.00,,,0.00,0.000000,,2013-03-05 07:52:00,